Weather reports worldwide

Advertisment
San Clemente, Spain (8256): temperature & dewpoint: 12.01.2018 06:00:00 - 18.01.2018 06:00:00 (CET)San Clemente, Spain (8256): wind speed & gusts: 12.01.2018 06:00:00 - 18.01.2018 06:00:00 (CET)San Clemente, Spain (8256): wind direction: 12.01.2018 06:00:00 - 18.01.2018 06:00:00 (CET)San Clemente, Spain (8256): reduced air pressure: 12.01.2018 06:00:00 - 18.01.2018 06:00:00 (CET)San Clemente, Spain (8256): visibility: 12.01.2018 06:00:00 - 18.01.2018 06:00:00 (CET)San Clemente, Spain (8256): sunshine duration: 12.01.2018 06:00:00 - 18.01.2018 06:00:00 (CET)San Clemente, Spain (8256): precipitation: 12.01.2018 06:00:00 - 18.01.2018 06:00:00 (CET)
Date & Time tt [°C] td [°C] ff [km/h] ff [kn] fx [km/h] fx [kn] dd ppp [hPa] vv [km] sd [min] rr [mm]
18.01.2018 06:00:00 0,9 -2,0 10 5 14 7 ESE 1027,5 20 0 0,0
18.01.2018 05:00:00 0,4 -2,2 5 3 16 9 ESE 1028,1 20 0 0,0
18.01.2018 04:00:00 0,5 -1,7 9 5 18 10 ESE 1028,3 20 0 0,0
18.01.2018 03:00:00 1,6 -1,2 12 6 18 10 SE 1028,2 20 0 0,0
18.01.2018 02:00:00 1,9 -0,5 10 6 16 9 ESE 1028,1 20 0 0,0
18.01.2018 01:00:00 2,9 0,0 14 8 24 13 ESE 1028,1 20 0 -
18.01.2018 00:00:00 4,2 0,6 16 9 25 14 ESE 1027,2 20 0 0,0
17.01.2018 23:00:00 4,0 0,4 14 8 26 14 ESE 1027,8 20 0 0,0
17.01.2018 22:00:00 4,3 0,2 16 9 24 13 E 1027,6 20 0 0,0
17.01.2018 21:00:00 5,4 0,6 14 7 21 12 E 1026,9 20 0 0,0
17.01.2018 20:00:00 6,4 0,6 17 9 22 12 E 1026,4 20 0 0,0
17.01.2018 19:00:00 8,1 0,4 10 5 21 12 ENE 1025,6 20 0 -
17.01.2018 18:00:00 11,0 -0,3 16 8 26 14 NE 1024,4 20 0 0,0
17.01.2018 17:00:00 11,5 5,8 20 11 33 18 NNW 1024,0 19 4 0,0
17.01.2018 16:00:00 10,7 6,2 21 11 29 16 NNW 1024,0 20 42 0,0
17.01.2018 15:00:00 8,8 5,8 23 12 29 16 NNW 1024,9 18 56 0,0
17.01.2018 14:00:00 7,0 5,1 21 12 31 17 NW 1026,0 17 34 0,0
17.01.2018 13:00:00 7,7 5,8 23 12 28 15 NNW 1026,3 17 56 -
17.01.2018 12:00:00 5,2 5,0 20 11 28 15 N 1027,8 9 12 0,0
17.01.2018 11:00:00 3,7 3,4 22 12 28 15 N 1028,2 0,5 0 0,0
17.01.2018 10:00:00 3,3 3,0 17 9 24 13 NNW 1027,9 0,5 0 0,0
17.01.2018 09:00:00 3,5 3,2 15 8 23 12 NNW 1027,8 0,4 0 0,0
17.01.2018 08:00:00 4,4 4,1 17 9 31 17 N 1027,0 0,3 0 0,0
17.01.2018 07:00:00 4,6 4,3 16 9 24 13 N 1026,9 0,6 0 -
17.01.2018 06:00:00 4,5 4,1 14 8 20 11 N 1026,5 0,5 0 0,0
17.01.2018 05:00:00 4,4 3,9 15 8 19 11 NNW 1026,4 0,4 0 0,0
17.01.2018 04:00:00 3,7 3,0 10 5 16 9 N 1027,4 10 0 0,0
17.01.2018 03:00:00 - - - - - - - - - - -
17.01.2018 02:00:00 3,0 2,5 14 8 17 9 N 1028,6 11 0 0,0
17.01.2018 01:00:00 3,0 2,5 14 8 18 10 N 1029,1 13 0 -
17.01.2018 00:00:00 2,2 1,3 15 8 19 10 N 1029,5 10 0 0,0
16.01.2018 23:00:00 3,1 1,9 15 8 19 10 N 1029,3 15 0 0,0
16.01.2018 22:00:00 3,9 2,1 2 1 10 5 NNW 1029,5 16 0 0,0
16.01.2018 21:00:00 5,4 3,0 7 4 9 5 N 1028,9 20 0 0,0
16.01.2018 20:00:00 6,6 3,4 5 3 15 8 NNE 1028,1 19 0 0,0
16.01.2018 19:00:00 6,6 3,2 11 6 19 10 N 1028,1 20 0 -
16.01.2018 18:00:00 9,6 4,1 14 8 31 17 N 1027,0 20 0 0,0
16.01.2018 17:00:00 11,1 4,8 23 12 32 18 N 1026,5 20 3 0,0
16.01.2018 16:00:00 11,2 4,5 23 12 33 18 N 1026,3 20 41 0,0
16.01.2018 15:00:00 10,3 3,6 22 12 32 17 N 1027,0 20 60 0,0
16.01.2018 14:00:00 9,7 3,2 23 12 32 18 N 1028,1 20 60 0,0
16.01.2018 13:00:00 8,2 2,9 23 12 32 17 N 1029,8 20 60 -
16.01.2018 12:00:00 6,5 2,5 23 13 32 17 N 1031,0 20 60 0,0
16.01.2018 11:00:00 3,8 1,7 15 8 20 11 N 1032,1 18 22 0,0
16.01.2018 10:00:00 2,5 1,1 16 8 20 11 N 1032,2 15 0 0,0
16.01.2018 09:00:00 1,1 0,2 12 7 18 10 N 1031,9 14 0 0,0
16.01.2018 08:00:00 0,7 -0,3 14 8 19 10 N 1031,5 14 0 0,0
16.01.2018 07:00:00 -0,9 -1,7 10 5 13 7 N 1031,5 11 0 -
16.01.2018 06:00:00 -0,6 -1,4 5 3 11 6 NE 1031,6 10 0 0,0
16.01.2018 05:00:00 -0,5 -1,4 6 3 10 6 NNE 1032,1 11 0 0,0
16.01.2018 04:00:00 -0,5 -1,2 6 3 13 7 N 1031,5 8 0 0,0
16.01.2018 03:00:00 -0,6 -1,2 10 6 14 8 NNE 1032,1 10 0 0,0
16.01.2018 02:00:00 -0,3 -1,0 10 5 13 7 N 1031,9 9 0 0,0
16.01.2018 01:00:00 -0,6 -1,4 8 4 13 7 N 1032,6 8 0 -
16.01.2018 00:00:00 0,2 -0,7 8 5 12 6 NNW 1032,2 10 0 0,0
15.01.2018 23:00:00 0,7 -0,3 9 5 13 7 NNW 1032,2 13 0 0,0
15.01.2018 22:00:00 0,9 0,0 13 7 14 8 N 1031,4 17 0 0,0
15.01.2018 21:00:00 1,3 -0,3 10 5 13 7 NNW 1031,0 15 0 0,0
15.01.2018 20:00:00 2,9 0,9 10 6 16 9 N 1030,1 19 0 0,0
15.01.2018 19:00:00 4,7 1,5 11 6 19 10 N 1028,9 20 0 -
15.01.2018 18:00:00 6,6 1,5 14 8 23 13 NNW 1027,2 20 0 0,0
15.01.2018 17:00:00 8,2 2,3 17 9 26 14 NNW 1026,3 20 0 0,0
15.01.2018 16:00:00 8,2 1,5 15 8 24 13 NNW 1026,0 20 41 0,0
15.01.2018 15:00:00 7,8 1,9 14 8 23 13 N 1026,0 20 60 0,0
15.01.2018 14:00:00 7,7 0,9 6 3 19 11 N 1025,9 20 60 0,0
15.01.2018 13:00:00 7,0 0,4 4 2 14 8 ENE 1027,5 20 60 -
15.01.2018 12:00:00 5,0 0,4 3 2 9 5 ENE 1028,3 20 60 0,0
15.01.2018 11:00:00 2,1 -0,7 4 2 10 6 NNE 1028,8 20 60 0,0
15.01.2018 10:00:00 -0,7 -2,5 8 4 11 6 N 1029,1 20 60 0,0
15.01.2018 09:00:00 -2,3 -3,3 6 3 9 5 NNW 1029,0 20 7 0,0
15.01.2018 08:00:00 -1,2 -3,0 3 2 16 9 NW 1027,7 20 0 0,0
15.01.2018 07:00:00 -0,8 -2,7 9 5 13 7 E 1026,4 20 0 -
15.01.2018 06:00:00 -0,5 -2,5 5 3 19 10 SE 1025,8 20 0 0,0
15.01.2018 05:00:00 -0,3 -2,7 10 6 19 11 E 1025,1 20 0 0,0
15.01.2018 04:00:00 0,7 -2,0 13 7 21 12 ESE 1024,7 20 0 0,0
15.01.2018 03:00:00 1,0 -1,7 15 8 22 12 E 1024,0 20 0 0,0
15.01.2018 02:00:00 1,4 -1,7 12 7 21 12 E 1023,9 20 0 0,0
15.01.2018 01:00:00 1,7 -1,0 14 7 23 12 E 1023,6 20 0 -
15.01.2018 00:00:00 1,5 -0,7 11 6 18 10 E 1023,6 20 0 0,0
14.01.2018 23:00:00 1,2 -1,0 11 6 20 11 E 1023,2 20 0 0,0
14.01.2018 22:00:00 1,6 -0,5 8 4 18 10 E 1022,5 20 0 0,0
14.01.2018 21:00:00 2,0 0,0 13 7 19 10 E 1021,7 20 0 0,0
14.01.2018 20:00:00 2,7 0,6 12 6 16 9 E 1020,8 20 0 0,0
14.01.2018 19:00:00 4,0 1,3 6 4 14 8 ENE 1020,0 20 0 -
14.01.2018 18:00:00 5,2 1,5 9 5 16 9 ENE 1019,1 20 0 0,0
14.01.2018 17:00:00 6,1 1,1 11 6 18 10 ENE 1018,4 20 0 0,0
14.01.2018 16:00:00 6,5 1,3 14 7 22 12 ENE 1017,8 20 9 0,0
14.01.2018 15:00:00 6,8 1,9 13 7 20 11 NE 1017,7 20 18 0,0
14.01.2018 14:00:00 7,2 1,5 11 6 19 10 N 1018,0 20 55 0,0
14.01.2018 13:00:00 5,4 2,5 14 7 21 11 N 1019,7 20 40 -
14.01.2018 12:00:00 4,6 2,7 13 7 21 11 NNW 1020,6 20 27 0,0
14.01.2018 11:00:00 3,8 3,2 14 7 19 10 N 1020,9 16 0 0,0
14.01.2018 10:00:00 3,4 3,0 14 8 20 11 N 1020,8 12 0 0,2
14.01.2018 09:00:00 3,1 2,7 7 4 17 9 N 1020,5 9 0 0,2
14.01.2018 08:00:00 3,1 2,5 17 9 27 15 N 1020,1 13 0 0,0
14.01.2018 07:00:00 3,5 3,0 13 7 22 12 NNW 1019,7 13 0 -
14.01.2018 06:00:00 3,0 2,5 15 8 22 12 NNW 1019,9 9 0 0,0
14.01.2018 05:00:00 2,8 1,9 15 8 21 11 N 1020,1 14 0 0,0
14.01.2018 04:00:00 2,7 1,7 13 7 17 9 N 1020,7 14 0 0,0
14.01.2018 03:00:00 2,6 1,5 10 5 22 12 N 1020,7 14 0 0,0
14.01.2018 02:00:00 2,5 1,7 16 9 26 14 N 1020,9 9 0 0,0
14.01.2018 01:00:00 2,6 1,5 18 10 25 13 N 1021,2 14 0 -
14.01.2018 00:00:00 2,3 0,9 18 10 32 18 N 1021,2 19 0 0,0
13.01.2018 23:00:00 4,1 2,7 27 14 40 22 N 1020,2 16 0 0,0
13.01.2018 22:00:00 5,2 4,5 24 13 40 22 N 1018,9 9 0 0,4
13.01.2018 21:00:00 5,3 4,3 29 16 40 22 NNW 1018,7 12 0 0,0
13.01.2018 20:00:00 5,2 3,8 31 17 40 22 NW 1018,3 15 0 0,0
13.01.2018 19:00:00 4,8 3,4 14 8 20 11 NW 1018,4 11 0 -
13.01.2018 18:00:00 5,0 2,1 5 3 21 11 W 1018,1 18 0 0,0
13.01.2018 17:00:00 5,1 1,7 14 8 55 30 WNW 1018,8 13 0 0,0
13.01.2018 16:00:00 8,4 -2,7 31 17 53 28 NNW 1017,5 20 0 0,0
13.01.2018 15:00:00 8,5 0,2 14 8 25 13 WNW 1017,1 20 52 0,0
13.01.2018 14:00:00 6,8 1,9 6 3 - - WSW 1018,5 16 17 0,0
13.01.2018 13:00:00 5,1 1,5 9 5 - - SW 1020,1 17 1 -
13.01.2018 12:00:00 3,8 1,1 10 5 - - SSW 1021,3 17 0 0,0
13.01.2018 11:00:00 3,3 0,6 7 4 14 8 S 1021,6 20 21 0,0
13.01.2018 10:00:00 1,1 -0,3 6 4 15 8 SE 1022,5 20 0 0,0
13.01.2018 09:00:00 0,4 -0,7 8 4 12 6 SE 1022,5 16 0 0,0
13.01.2018 08:00:00 0,0 -1,0 8 4 13 7 SE 1022,6 14 0 0,0
13.01.2018 07:00:00 -0,3 -1,2 6 3 10 5 S 1022,8 10 0 -
13.01.2018 06:00:00 -0,5 -1,4 9 5 12 6 SSE 1022,7 12 0 0,0
13.01.2018 05:00:00 0,1 -0,7 8 4 13 7 E 1023,5 11 0 0,0
13.01.2018 04:00:00 0,2 -0,7 8 5 12 6 E 1024,3 14 0 0,0
13.01.2018 03:00:00 -0,1 -0,7 6 4 11 6 E 1024,8 15 0 0,0
13.01.2018 02:00:00 0,2 -0,7 8 4 10 5 E 1025,1 13 0 0,0
13.01.2018 01:00:00 0,6 -0,5 5 3 9 5 E 1026,0 14 0 -
13.01.2018 00:00:00 0,7 -0,5 6 3 - - E 1026,4 16 0 0,0
12.01.2018 23:00:00 1,3 -0,3 - - - - - 1026,2 16 0 0,0
12.01.2018 22:00:00 1,8 0,4 5 3 - - SE 1026,1 16 0 0,0
12.01.2018 21:00:00 3,7 0,6 9 5 14 7 NE 1025,7 20 0 0,0
12.01.2018 20:00:00 3,8 1,1 10 5 13 7 NE 1025,9 20 0 0,0
12.01.2018 19:00:00 4,3 1,7 8 4 14 8 NNE 1025,6 20 0 -
12.01.2018 18:00:00 5,3 1,7 11 6 16 9 N 1025,2 20 0 0,0
12.01.2018 17:00:00 6,8 1,7 12 6 24 13 N 1024,6 20 0 0,0
12.01.2018 16:00:00 7,9 1,9 19 10 29 16 NNW 1024,2 20 45 0,0
12.01.2018 15:00:00 8,1 1,3 19 11 30 16 NNW 1024,3 20 60 0,0
12.01.2018 14:00:00 8,0 2,1 16 8 24 13 N 1024,9 20 60 0,0
12.01.2018 13:00:00 6,6 2,1 13 7 20 11 N 1026,4 18 60 -
12.01.2018 12:00:00 3,6 1,1 14 8 21 11 N 1028,2 17 60 0,0
12.01.2018 11:00:00 1,3 -0,7 14 8 19 10 NNW 1029,2 20 60 0,0
12.01.2018 10:00:00 -0,7 -2,0 14 8 19 10 N 1029,2 20 53 0,0
12.01.2018 09:00:00 -3,0 -3,9 9 5 17 9 NNW 1029,8 17 10 0,0
12.01.2018 08:00:00 -2,7 -3,3 7 4 20 11 NE 1029,1 18 0 0,0
12.01.2018 07:00:00 -2,9 -3,6 12 6 19 10 N 1029,2 16 0 -
12.01.2018 06:00:00 -2,0 -2,7 14 8 24 13 NW 1028,7 20 0 0,0

tt = temperature
td = dewpoint
ff = wind speed
fx = gusts
dd = wind direction
ppp = reduced air pressure
vv = visibility
sd = sunshine duration
rr = precipitation

Next stations